This is the latest recevied weather packets stored in our database for station/object SR6WVX. If no packets are shown the sender has not sent any weather packets the latest 10 day(s).
| Time | Temp. | Humidity | Pressure | Rain* | Wind** | Luminosity | Snow |
|---|---|---|---|---|---|---|---|
| 1778101444 | 13.89° C | 91% | 1000.9 hPa | 0.51 mm | - | - | - |
| 1778101143 | 13.89° C | 91% | 1000.7 hPa | 1.02 mm | - | - | - |
| 1778100843 | 13.89° C | 91% | 1000.7 hPa | 1.02 mm | - | - | - |
| 1778100543 | 13.89° C | 90% | 1000.6 hPa | 2.03 mm | - | - | - |
| 1778100243 | 13.89° C | 90% | 1000.8 hPa | 2.03 mm | - | - | - |
| 1778099942 | 13.89° C | 90% | 1001 hPa | 2.03 mm | - | - | - |
| 1778099642 | 13.89° C | 90% | 1001.1 hPa | 2.03 mm | - | - | - |
| 1778099342 | 13.89° C | 90% | 1001 hPa | 2.03 mm | - | - | - |
| 1778099041 | 13.89° C | 90% | 1000.9 hPa | 1.52 mm | - | - | - |
| 1778098741 | 13.89° C | 89% | 1000.6 hPa | 2.03 mm | - | - | - |
| 1778098441 | 13.89° C | 89% | 1000.9 hPa | 2.03 mm | - | - | - |
| 1778098141 | 13.89° C | 88% | 1001 hPa | 2.03 mm | - | - | - |
| 1778097840 | 13.89° C | 87% | 1001.2 hPa | 1.52 mm | - | - | - |
| 1778097540 | 13.89° C | 87% | 1001.3 hPa | 1.52 mm | - | - | - |
| 1778097240 | 13.89° C | 87% | 1001.3 hPa | 1.02 mm | - | - | - |
| 1778096940 | 13.89° C | 87% | 1001.3 hPa | 1.02 mm | - | - | - |
| 1778096639 | 13.89° C | 87% | 1001.4 hPa | 1.02 mm | - | - | - |
| 1778096339 | 13.89° C | 86% | 1001.7 hPa | 1.52 mm | - | - | - |
| 1778096039 | 13.89° C | 86% | 1001.6 hPa | 1.52 mm | - | - | - |
| 1778095739 | 13.89° C | 86% | 1001.6 hPa | 1.52 mm | - | - | - |
| 1778095438 | 13.89° C | 86% | 1001.4 hPa | 1.02 mm | - | - | - |
| 1778095138 | 13.89° C | 86% | 1001.4 hPa | 1.02 mm | - | - | - |
| 1778094838 | 13.89° C | 86% | 1001.6 hPa | 1.02 mm | - | - | - |
| 1778094538 | 13.89° C | 85% | 1001.6 hPa | 1.02 mm | - | - | - |
| 1778094237 | 13.89° C | 85% | 1001.6 hPa | 1.02 mm | - | - | - |
* Rain latest hour (hover to see other rain measurements)
** Current wind speed in m/s (hover to see current wind gust speed)